Time,TemperatureF,DewpointF,PressureIn,WindDirection,WindDirectionDegrees,WindSpeedMPH,WindSpeedGustMPH,Humidity,HourlyPrecipIn,Conditions,Clouds,dailyrainin,SoftwareType,DateUTC
2014-01-05 00:01:00,45.5,35.6,29.82,NE,42,5.8,6.3,68,0.00,,,0.00,VWS V13.01,2014-01-05 06:01:00,
2014-01-05 00:06:00,45.7,35.8,29.82,NNE,26,6.3,6.3,68,0.00,,,0.00,VWS V13.01,2014-01-05 06:06:00,
2014-01-05 00:11:00,45.7,35.8,29.79,North,10,6.3,8.1,68,0.00,,,0.00,VWS V13.01,2014-01-05 06:11:00,
2014-01-05 00:16:00,45.7,35.8,29.79,NNE,27,5.4,6.7,68,0.00,,,0.00,VWS V13.01,2014-01-05 06:16:00,
2014-01-05 00:21:00,45.9,35.6,29.79,NNE,25,5.4,6.7,67,0.00,,,0.00,VWS V13.01,2014-01-05 06:21:00,
2014-01-05 00:26:00,45.9,35.6,29.79,NNE,28,6.3,6.3,67,0.00,,,0.00,VWS V13.01,2014-01-05 06:26:00,
2014-01-05 00:31:00,46.1,36.1,29.79,NE,48,5.4,5.4,68,0.00,,,0.00,VWS V13.01,2014-01-05 06:31:00,
2014-01-05 00:36:00,45.9,36.0,29.79,NE,39,5.8,5.8,68,0.00,,,0.00,VWS V13.01,2014-01-05 06:36:00,
2014-01-05 00:41:00,45.9,36.0,29.79,ENE,60,6.3,6.3,68,0.00,,,0.00,VWS V13.01,2014-01-05 06:41:00,
2014-01-05 00:46:00,46.1,36.1,29.79,NE,44,4.9,5.8,68,0.00,,,0.00,VWS V13.01,2014-01-05 06:46:00,
2014-01-05 00:51:00,46.1,36.1,29.79,NE,43,6.3,6.3,68,0.00,,,0.00,VWS V13.01,2014-01-05 06:51:00,
2014-01-05 00:56:00,46.3,36.3,29.79,ENE,60,4.9,6.3,68,0.00,,,0.00,VWS V13.01,2014-01-05 06:56:00,
2014-01-05 01:01:00,46.3,36.3,29.79,NE,35,3.1,4.0,68,0.00,,,0.00,VWS V13.01,2014-01-05 07:01:00,
2014-01-05 01:06:00,46.3,36.3,29.79,ENE,67,4.0,4.0,68,0.00,,,0.00,VWS V13.01,2014-01-05 07:06:00,
2014-01-05 01:11:00,46.3,36.7,29.79,ENE,61,3.6,4.5,69,0.00,,,0.00,VWS V13.01,2014-01-05 07:11:00,
2014-01-05 01:16:00,46.4,36.8,29.79,ENE,64,6.3,6.3,69,0.00,,,0.00,VWS V13.01,2014-01-05 07:16:00,
2014-01-05 01:21:00,46.4,36.8,29.79,ENE,73,5.4,5.4,69,0.00,,,0.00,VWS V13.01,2014-01-05 07:21:00,
2014-01-05 01:26:00,46.4,36.8,29.76,NE,56,4.0,5.8,69,0.00,,,0.00,VWS V13.01,2014-01-05 07:26:00,
2014-01-05 01:31:00,46.4,36.8,29.76,NE,42,6.3,6.3,69,0.00,,,0.00,VWS V13.01,2014-01-05 07:31:00,
2014-01-05 01:36:00,46.6,37.0,29.76,ENE,71,4.9,5.8,69,0.00,,,0.00,VWS V13.01,2014-01-05 07:36:00,
2014-01-05 01:41:00,46.6,37.0,29.76,ENE,69,6.3,6.3,69,0.00,,,0.00,VWS V13.01,2014-01-05 07:41:00,
2014-01-05 01:46:00,46.6,37.0,29.76,NE,46,4.9,4.9,69,0.00,,,0.00,VWS V13.01,2014-01-05 07:46:00,
2014-01-05 01:51:00,46.6,37.0,29.76,NE,51,5.4,5.4,69,0.00,,,0.00,VWS V13.01,2014-01-05 07:51:00,
2014-01-05 01:56:00,46.8,37.2,29.76,NE,51,4.0,5.4,69,0.00,,,0.00,VWS V13.01,2014-01-05 07:56:00,
2014-01-05 02:01:00,46.8,37.2,29.76,ENE,65,5.4,5.4,69,0.00,,,0.00,VWS V13.01,2014-01-05 08:01:00,
2014-01-05 02:06:00,46.8,37.5,29.76,ENE,69,4.9,4.9,70,0.00,,,0.00,VWS V13.01,2014-01-05 08:06:00,
2014-01-05 02:11:00,46.8,37.5,29.76,ENE,67,5.8,5.8,70,0.00,,,0.00,VWS V13.01,2014-01-05 08:11:00,
2014-01-05 02:16:00,47.0,37.7,29.76,NE,46,5.8,6.3,70,0.00,,,0.00,VWS V13.01,2014-01-05 08:16:00,
2014-01-05 02:21:00,46.8,37.5,29.76,NE,37,4.9,4.9,70,0.00,,,0.00,VWS V13.01,2014-01-05 08:21:00,
2014-01-05 02:26:00,46.8,37.9,29.76,ENE,61,4.9,4.9,71,0.00,,,0.00,VWS V13.01,2014-01-05 08:26:00,
2014-01-05 02:31:00,46.8,37.9,29.76,ENE,57,5.8,5.8,71,0.00,,,0.00,VWS V13.01,2014-01-05 08:31:00,
2014-01-05 02:36:00,46.8,37.9,29.76,ENE,66,3.1,3.1,71,0.00,,,0.00,VWS V13.01,2014-01-05 08:36:00,
2014-01-05 02:41:00,46.8,37.9,29.73,NE,44,5.4,5.4,71,0.00,,,0.00,VWS V13.01,2014-01-05 08:41:00,
2014-01-05 02:46:00,47.0,38.4,29.73,ENE,64,4.9,4.9,72,0.00,,,0.00,VWS V13.01,2014-01-05 08:46:00,
2014-01-05 02:51:00,47.0,38.4,29.73,ENE,68,5.8,5.8,72,0.00,,,0.00,VWS V13.01,2014-01-05 08:51:00,
2014-01-05 02:56:00,47.2,38.6,29.73,NE,53,6.3,6.3,72,0.00,,,0.00,VWS V13.01,2014-01-05 08:56:00,
2014-01-05 03:01:00,47.2,38.6,29.73,NE,50,4.0,4.0,72,0.00,,,0.00,VWS V13.01,2014-01-05 09:01:00,
2014-01-05 03:06:00,47.0,39.8,29.73,NE,38,4.0,4.5,76,0.00,,,0.00,VWS V13.01,2014-01-05 09:06:00,
2014-01-05 03:11:00,46.6,40.1,29.73,NE,37,4.5,4.9,78,0.00,,,0.00,VWS V13.01,2014-01-05 09:11:00,
2014-01-05 03:16:00,46.3,40.1,29.73,NE,48,3.6,4.0,79,0.00,,,0.00,VWS V13.01,2014-01-05 09:16:00,
2014-01-05 03:21:00,46.1,40.6,29.73,NE,51,3.6,5.4,81,0.00,,,0.00,VWS V13.01,2014-01-05 09:21:00,
2014-01-05 03:26:00,46.1,40.9,29.73,ENE,62,5.8,5.8,82,0.00,,,0.00,VWS V13.01,2014-01-05 09:26:00,
2014-01-05 03:31:00,46.1,41.2,29.73,ENE,57,3.6,4.0,83,0.00,,,0.00,VWS V13.01,2014-01-05 09:31:00,
2014-01-05 03:36:00,46.1,41.5,29.73,NE,48,3.6,4.0,84,0.00,,,0.00,VWS V13.01,2014-01-05 09:36:00,
2014-01-05 03:41:00,46.1,41.8,29.70,NNE,18,4.0,4.0,85,0.00,,,0.00,VWS V13.01,2014-01-05 09:41:00,
2014-01-05 03:46:00,45.9,42.0,29.70,NNE,24,4.0,5.8,86,0.00,,,0.00,VWS V13.01,2014-01-05 09:46:00,
2014-01-05 03:51:00,45.9,42.3,29.70,NNE,31,3.6,4.0,87,0.00,,,0.00,VWS V13.01,2014-01-05 09:51:00,
2014-01-05 03:56:00,45.9,42.5,29.70,NE,38,5.8,5.8,88,0.00,,,0.00,VWS V13.01,2014-01-05 09:56:00,
2014-01-05 04:01:00,45.9,42.8,29.70,NE,42,4.9,5.8,89,0.00,,,0.00,VWS V13.01,2014-01-05 10:01:00,
2014-01-05 04:06:00,45.9,42.8,29.70,NE,44,3.6,5.4,89,0.00,,,0.00,VWS V13.01,2014-01-05 10:06:00,
2014-01-05 04:11:00,45.9,42.8,29.70,NE,38,4.0,5.8,89,0.00,,,0.00,VWS V13.01,2014-01-05 10:11:00,
2014-01-05 04:16:00,45.9,42.8,29.70,NE,56,3.6,4.0,89,0.00,,,0.00,VWS V13.01,2014-01-05 10:16:00,
2014-01-05 04:21:00,46.1,43.0,29.70,NE,55,4.0,4.9,89,0.00,,,0.00,VWS V13.01,2014-01-05 10:21:00,
2014-01-05 04:26:00,46.1,43.0,29.70,NE,53,4.5,4.5,89,0.00,,,0.00,VWS V13.01,2014-01-05 10:26:00,
2014-01-05 04:31:00,46.1,43.0,29.70,NE,42,4.0,4.9,89,0.00,,,0.00,VWS V13.01,2014-01-05 10:31:00,
2014-01-05 04:36:00,46.3,43.2,29.70,NNE,33,4.5,4.9,89,0.00,,,0.00,VWS V13.01,2014-01-05 10:36:00,
2014-01-05 04:41:00,46.3,43.5,29.70,NNE,29,4.0,4.0,90,0.00,,,0.00,VWS V13.01,2014-01-05 10:41:00,
2014-01-05 04:46:00,46.3,43.8,29.70,NE,41,2.7,3.6,91,0.00,,,0.00,VWS V13.01,2014-01-05 10:46:00,
2014-01-05 04:51:00,46.3,44.3,29.70,NNE,26,2.7,2.7,93,0.00,,,0.00,VWS V13.01,2014-01-05 10:51:00,
2014-01-05 04:56:00,46.3,44.3,29.70,NNE,26,0.0,0.0,93,0.00,,,0.00,VWS V13.01,2014-01-05 10:56:00,
2014-01-05 05:01:00,46.1,43.9,29.70,WSW,242,2.7,3.1,92,0.00,,,0.00,VWS V13.01,2014-01-05 11:01:00,
2014-01-05 05:06:00,45.9,44.5,29.70,SW,222,6.3,6.3,95,0.00,,,0.00,VWS V13.01,2014-01-05 11:06:00,
2014-01-05 05:11:00,45.9,44.8,29.70,SW,236,3.1,3.1,96,0.00,,,0.00,VWS V13.01,2014-01-05 11:11:00,
2014-01-05 05:16:00,45.9,45.1,29.70,WSW,258,2.2,2.7,97,0.00,,,0.00,VWS V13.01,2014-01-05 11:16:00,
2014-01-05 05:21:00,45.7,44.9,29.70,SSW,198,2.7,2.7,97,0.00,,,0.00,VWS V13.01,2014-01-05 11:21:00,
2014-01-05 05:25:00,45.7,45.2,29.70,SSW,197,5.8,5.8,98,0.00,,,0.00,VWS V13.01,2014-01-05 11:25:00,
2014-01-05 05:30:00,45.4,45.4,29.70,SW,220,8.7,8.7,100,0.00,,,0.00,VWS V13.01,2014-01-05 11:30:00,
2014-01-05 05:35:00,44.5,43.9,29.70,South,189,8.3,9.2,98,0.00,,,0.00,VWS V13.01,2014-01-05 11:35:00,
2014-01-05 05:40:00,43.4,42.6,29.70,South,172,8.7,8.7,97,0.00,,,0.00,VWS V13.01,2014-01-05 11:40:00,
2014-01-05 05:45:00,42.7,42.1,29.70,South,179,8.3,8.3,98,0.00,,,0.00,VWS V13.01,2014-01-05 11:45:00,
2014-01-05 05:50:00,42.3,42.3,29.70,SW,235,6.3,7.6,100,0.00,,,0.00,VWS V13.01,2014-01-05 11:50:00,
2014-01-05 05:55:00,42.1,42.1,29.73,SW,216,5.8,9.6,100,0.00,,,0.00,VWS V13.01,2014-01-05 11:55:00,
2014-01-05 06:00:00,41.9,41.9,29.73,SW,228,7.6,8.1,100,0.00,,,0.00,VWS V13.01,2014-01-05 12:00:00,
2014-01-05 06:05:00,41.9,41.9,29.73,SSW,204,8.1,8.1,100,0.00,,,0.00,VWS V13.01,2014-01-05 12:05:00,
2014-01-05 06:10:00,41.9,41.9,29.73,SW,227,8.1,8.1,100,0.00,,,0.00,VWS V13.01,2014-01-05 12:10:00,
2014-01-05 06:15:00,41.9,41.9,29.73,SSW,212,8.1,10.5,100,0.00,,,0.00,VWS V13.01,2014-01-05 12:15:00,
2014-01-05 06:20:00,41.9,41.9,29.73,SW,236,6.3,8.7,100,0.00,,,0.00,VWS V13.01,2014-01-05 12:20:00,
2014-01-05 06:25:00,41.9,41.9,29.73,WSW,247,8.1,12.8,100,0.00,,,0.00,VWS V13.01,2014-01-05 12:25:00,
2014-01-05 06:30:00,41.9,41.9,29.73,SW,227,5.8,5.8,100,0.00,,,0.00,VWS V13.01,2014-01-05 12:30:00,
2014-01-05 06:35:00,41.9,41.9,29.73,SW,223,5.8,8.3,100,0.00,,,0.00,VWS V13.01,2014-01-05 12:35:00,
2014-01-05 06:40:00,41.9,41.9,29.76,WSW,257,3.1,5.8,100,0.00,,,0.00,VWS V13.01,2014-01-05 12:40:00,
2014-01-05 06:45:00,41.9,41.9,29.76,WSW,245,5.4,5.4,100,0.04,,,0.04,VWS V13.01,2014-01-05 12:45:00,
2014-01-05 06:50:00,41.6,41.6,29.76,WSW,243,5.4,5.4,100,0.04,,,0.04,VWS V13.01,2014-01-05 12:50:00,
2014-01-05 06:55:00,41.0,41.0,29.76,NW,305,0.0,2.2,100,0.08,,,0.08,VWS V13.01,2014-01-05 12:55:00,
2014-01-05 07:00:00,40.5,40.5,29.76,NW,317,5.8,5.8,100,0.08,,,0.08,VWS V13.01,2014-01-05 13:00:00,
2014-01-05 07:05:00,40.3,39.8,29.76,NNW,340,2.2,2.2,98,0.08,,,0.08,VWS V13.01,2014-01-05 13:05:00,
2014-01-05 07:10:00,40.3,40.1,29.79,NNW,337,0.0,0.0,99,0.08,,,0.12,VWS V13.01,2014-01-05 13:10:00,
2014-01-05 07:15:00,40.0,38.9,29.79,NW,316,2.2,2.2,96,0.12,,,0.12,VWS V13.01,2014-01-05 13:15:00,
2014-01-05 07:20:00,39.8,38.7,29.79,NW,311,0.0,0.0,96,0.12,,,0.12,VWS V13.01,2014-01-05 13:20:00,
2014-01-05 07:25:00,39.8,39.0,29.79,WSW,239,3.1,3.1,97,0.12,,,0.12,VWS V13.01,2014-01-05 13:25:00,
2014-01-05 07:30:00,39.4,38.4,29.79,SW,234,0.0,0.0,96,0.12,,,0.12,VWS V13.01,2014-01-05 13:30:00,
2014-01-05 07:35:00,39.2,38.2,29.79,SW,227,2.7,4.0,96,0.12,,,0.12,VWS V13.01,2014-01-05 13:35:00,
2014-01-05 07:40:00,38.9,37.8,29.79,SW,236,3.1,3.1,96,0.12,,,0.12,VWS V13.01,2014-01-05 13:40:00,
2014-01-05 07:45:00,38.9,37.8,29.82,WSW,250,3.6,3.6,96,0.08,,,0.12,VWS V13.01,2014-01-05 13:45:00,
2014-01-05 07:50:00,38.3,37.3,29.82,West,273,7.2,8.7,96,0.08,,,0.12,VWS V13.01,2014-01-05 13:50:00,
2014-01-05 07:55:00,38.2,35.8,29.82,WSW,247,10.1,10.1,91,0.04,,,0.12,VWS V13.01,2014-01-05 13:55:00,
2014-01-05 08:00:00,38.2,34.6,29.82,West,270,5.4,5.4,87,0.04,,,0.12,VWS V13.01,2014-01-05 14:00:00,
2014-01-05 08:05:00,38.0,33.6,29.82,West,266,3.6,4.0,84,0.04,,,0.12,VWS V13.01,2014-01-05 14:05:00,
2014-01-05 08:10:00,38.0,33.6,29.82,SW,232,4.9,4.9,84,0.04,,,0.12,VWS V13.01,2014-01-05 14:10:00,
2014-01-05 08:15:00,37.6,32.6,29.82,West,263,6.3,6.3,82,0.00,,,0.12,VWS V13.01,2014-01-05 14:15:00,
2014-01-05 08:20:00,37.8,32.8,29.82,WSW,256,0.0,0.0,82,0.00,,,0.12,VWS V13.01,2014-01-05 14:20:00,
2014-01-05 08:25:00,37.6,33.2,29.82,NW,317,2.2,2.2,84,0.00,,,0.12,VWS V13.01,2014-01-05 14:25:00,
2014-01-05 08:30:00,37.6,33.8,29.82,WNW,292,0.0,0.0,86,0.00,,,0.12,VWS V13.01,2014-01-05 14:30:00,
2014-01-05 08:35:00,37.3,32.3,29.82,WSW,241,3.1,3.6,82,0.00,,,0.12,VWS V13.01,2014-01-05 14:35:00,
2014-01-05 08:40:00,37.1,32.7,29.82,West,261,3.1,3.6,84,0.00,,,0.12,VWS V13.01,2014-01-05 14:40:00,
2014-01-05 08:45:00,36.7,32.3,29.85,West,262,4.5,4.5,84,0.00,,,0.12,VWS V13.01,2014-01-05 14:45:00,
2014-01-05 08:50:00,36.0,31.0,29.85,West,268,6.3,6.3,82,0.00,,,0.12,VWS V13.01,2014-01-05 14:50:00,
2014-01-05 08:55:00,35.6,30.4,29.85,West,281,3.6,4.0,81,0.00,,,0.12,VWS V13.01,2014-01-05 14:55:00,
2014-01-05 09:00:00,34.9,29.1,29.85,WSW,258,8.3,11.0,79,0.00,,,0.12,VWS V13.01,2014-01-05 15:00:00,
2014-01-05 09:05:00,34.4,27.9,29.85,West,274,7.6,8.7,77,0.00,,,0.12,VWS V13.01,2014-01-05 15:05:00,
2014-01-05 09:10:00,33.8,27.7,29.85,WSW,247,5.4,5.4,78,0.00,,,0.12,VWS V13.01,2014-01-05 15:10:00,
2014-01-05 09:15:00,33.1,27.0,29.88,NW,313,6.3,7.6,78,0.00,,,0.12,VWS V13.01,2014-01-05 15:15:00,
2014-01-05 09:20:00,32.8,27.0,29.88,NW,304,4.5,5.4,79,0.00,,,0.12,VWS V13.01,2014-01-05 15:20:00,
2014-01-05 09:25:00,32.6,26.8,29.88,NW,307,5.4,5.4,79,0.00,,,0.12,VWS V13.01,2014-01-05 15:25:00,
2014-01-05 09:30:00,32.2,26.1,29.88,West,276,4.9,8.3,78,0.00,,,0.12,VWS V13.01,2014-01-05 15:30:00,
2014-01-05 09:35:00,31.7,24.4,29.88,WNW,288,5.4,7.2,74,0.00,,,0.12,VWS V13.01,2014-01-05 15:35:00,
2014-01-05 09:40:00,31.1,23.5,29.88,West,280,5.8,8.3,73,0.00,,,0.12,VWS V13.01,2014-01-05 15:40:00,
2014-01-05 09:45:00,30.8,23.2,29.91,West,280,0.0,0.0,73,0.00,,,0.12,VWS V13.01,2014-01-05 15:45:00,
2014-01-05 09:50:00,30.2,22.3,29.91,West,280,0.0,0.0,72,0.00,,,0.12,VWS V13.01,2014-01-05 15:50:00,
2014-01-05 09:55:00,29.7,21.8,29.91,West,280,0.0,0.0,72,0.00,,,0.12,VWS V13.01,2014-01-05 15:55:00,
2014-01-05 10:00:00,29.2,20.9,29.94,West,280,0.0,0.0,71,0.00,,,0.12,VWS V13.01,2014-01-05 16:00:00,
2014-01-05 10:05:00,29.0,20.8,29.94,West,280,0.0,0.0,71,0.00,,,0.12,VWS V13.01,2014-01-05 16:05:00,
2014-01-05 10:10:00,28.6,20.1,29.94,West,280,0.0,0.0,70,0.00,,,0.12,VWS V13.01,2014-01-05 16:10:00,
2014-01-05 10:15:00,28.3,20.1,29.94,West,280,0.0,0.0,71,0.00,,,0.12,VWS V13.01,2014-01-05 16:15:00,
2014-01-05 10:20:00,27.7,19.6,29.94,West,280,0.0,0.0,71,0.00,,,0.12,VWS V13.01,2014-01-05 16:20:00,
2014-01-05 10:25:00,27.4,19.2,29.94,West,280,0.0,0.0,71,0.00,,,0.12,VWS V13.01,2014-01-05 16:25:00,
2014-01-05 10:30:00,27.2,19.0,29.97,West,280,0.0,0.0,71,0.00,,,0.12,VWS V13.01,2014-01-05 16:30:00,
2014-01-05 10:35:00,26.8,18.4,29.97,West,280,0.0,0.0,70,0.00,,,0.12,VWS V13.01,2014-01-05 16:35:00,
2014-01-05 10:40:00,26.8,18.7,29.97,West,280,0.0,0.0,71,0.00,,,0.12,VWS V13.01,2014-01-05 16:40:00,
2014-01-05 10:44:00,26.8,18.4,29.97,West,280,0.0,0.0,70,0.00,,,0.00,VWS V13.01,2014-01-05 16:44:00,
2014-01-05 10:49:00,26.8,18.0,29.97,West,280,0.0,0.0,69,0.00,,,0.12,VWS V13.01,2014-01-05 16:49:00,
2014-01-05 10:54:00,26.8,18.0,29.97,West,280,0.0,0.0,69,0.00,,,0.12,VWS V13.01,2014-01-05 16:54:00,
2014-01-05 10:59:00,26.6,17.9,30.00,West,280,0.0,0.0,69,0.00,,,0.12,VWS V13.01,2014-01-05 16:59:00,
2014-01-05 11:04:00,26.3,16.5,30.00,West,280,0.0,0.0,66,0.00,,,0.12,VWS V13.01,2014-01-05 17:04:00,
2014-01-05 11:09:00,26.3,17.2,30.00,West,280,0.0,0.0,68,0.00,,,0.12,VWS V13.01,2014-01-05 17:09:00,
2014-01-05 11:14:00,26.1,17.3,30.00,West,280,0.0,0.0,69,0.00,,,0.12,VWS V13.01,2014-01-05 17:14:00,
2014-01-05 11:19:00,25.9,16.5,30.00,West,280,0.0,0.0,67,0.00,,,0.12,VWS V13.01,2014-01-05 17:19:00,
2014-01-05 11:24:00,25.7,16.0,30.00,West,280,0.0,0.0,66,0.00,,,0.12,VWS V13.01,2014-01-05 17:24:00,
2014-01-05 11:29:00,25.6,15.8,30.00,West,280,0.0,0.0,66,0.00,,,0.12,VWS V13.01,2014-01-05 17:29:00,
2014-01-05 11:34:00,25.4,16.0,30.00,West,280,0.0,0.0,67,0.00,,,0.12,VWS V13.01,2014-01-05 17:34:00,
2014-01-05 11:39:00,25.4,16.0,30.00,West,280,0.0,0.0,67,0.00,,,0.12,VWS V13.01,2014-01-05 17:39:00,
2014-01-05 11:44:00,25.9,15.8,30.00,West,280,0.0,0.0,65,0.00,,,0.12,VWS V13.01,2014-01-05 17:44:00,
2014-01-05 11:49:00,25.6,15.1,30.00,West,280,0.0,0.0,64,0.00,,,0.12,VWS V13.01,2014-01-05 17:49:00,
2014-01-05 11:54:00,25.6,15.4,30.00,West,280,0.0,0.0,65,0.00,,,0.12,VWS V13.01,2014-01-05 17:54:00,
2014-01-05 11:59:00,25.9,15.8,30.00,West,280,0.0,0.0,65,0.00,,,0.12,VWS V13.01,2014-01-05 17:59:00,
2014-01-05 12:04:00,26.5,17.3,30.00,West,280,0.0,0.0,68,0.00,,,0.12,VWS V13.01,2014-01-05 18:04:00,
2014-01-05 12:09:00,25.2,14.8,30.00,West,280,0.0,0.0,64,0.00,,,0.12,VWS V13.01,2014-01-05 18:09:00,
2014-01-05 12:14:00,24.8,14.4,30.03,West,280,0.0,0.0,64,0.00,,,0.12,VWS V13.01,2014-01-05 18:14:00,
2014-01-05 12:19:00,25.0,14.6,30.03,West,280,0.0,0.0,64,0.00,,,0.12,VWS V13.01,2014-01-05 18:19:00,
2014-01-05 12:24:00,25.0,14.2,30.03,West,280,0.0,0.0,63,0.00,,,0.12,VWS V13.01,2014-01-05 18:24:00,
2014-01-05 12:29:00,25.0,14.6,30.03,West,280,0.0,0.0,64,0.00,,,0.12,VWS V13.01,2014-01-05 18:29:00,
2014-01-05 12:34:00,25.4,14.9,30.03,West,280,0.0,0.0,64,0.00,,,0.12,VWS V13.01,2014-01-05 18:34:00,
2014-01-05 12:39:00,25.6,15.4,30.03,West,280,0.0,0.0,65,0.00,,,0.12,VWS V13.01,2014-01-05 18:39:00,
2014-01-05 12:44:00,24.8,13.7,30.03,West,280,0.0,0.0,62,0.00,,,0.12,VWS V13.01,2014-01-05 18:44:00,
2014-01-05 12:49:00,24.8,13.7,30.03,West,280,0.0,0.0,62,0.00,,,0.12,VWS V13.01,2014-01-05 18:49:00,
2014-01-05 12:54:00,24.7,13.5,30.03,West,280,0.0,0.0,62,0.00,,,0.12,VWS V13.01,2014-01-05 18:54:00,
2014-01-05 12:59:00,24.7,13.9,30.03,West,280,0.0,0.0,63,0.00,,,0.12,VWS V13.01,2014-01-05 18:59:00,
2014-01-05 13:04:00,25.2,14.8,30.03,West,280,0.0,0.0,64,0.00,,,0.12,VWS V13.01,2014-01-05 19:04:00,
2014-01-05 13:09:00,25.4,14.2,30.03,West,280,0.0,0.0,62,0.00,,,0.12,VWS V13.01,2014-01-05 19:09:00,
2014-01-05 13:14:00,25.6,14.7,30.06,West,280,0.0,0.0,63,0.00,,,0.12,VWS V13.01,2014-01-05 19:14:00,
2014-01-05 13:19:00,25.2,14.0,30.06,West,280,0.0,0.0,62,0.00,,,0.12,VWS V13.01,2014-01-05 19:19:00,
2014-01-05 13:24:00,25.2,14.4,30.06,West,280,0.0,0.0,63,0.00,,,0.12,VWS V13.01,2014-01-05 19:24:00,
2014-01-05 13:29:00,25.7,14.9,30.06,West,280,0.0,0.0,63,0.00,,,0.12,VWS V13.01,2014-01-05 19:29:00,
2014-01-05 13:34:00,25.7,14.9,30.06,West,280,0.0,0.0,63,0.00,,,0.12,VWS V13.01,2014-01-05 19:34:00,
2014-01-05 13:39:00,25.6,14.4,30.06,West,280,0.0,0.0,62,0.00,,,0.12,VWS V13.01,2014-01-05 19:39:00,
2014-01-05 13:44:00,25.6,14.4,30.06,West,280,0.0,0.0,62,0.00,,,0.12,VWS V13.01,2014-01-05 19:44:00,
2014-01-05 13:49:00,25.9,14.7,30.06,West,280,0.0,0.0,62,0.00,,,0.12,VWS V13.01,2014-01-05 19:49:00,
2014-01-05 13:54:00,25.7,14.5,30.06,West,280,0.0,0.0,62,0.00,,,0.12,VWS V13.01,2014-01-05 19:54:00,
2014-01-05 13:59:00,25.6,14.4,30.09,West,280,0.0,0.0,62,0.00,,,0.12,VWS V13.01,2014-01-05 19:59:00,
2014-01-05 14:04:00,25.0,13.9,30.09,West,280,0.0,0.0,62,0.00,,,0.12,VWS V13.01,2014-01-05 20:04:00,
2014-01-05 14:09:00,24.7,13.5,30.09,West,280,0.0,0.0,62,0.00,,,0.12,VWS V13.01,2014-01-05 20:09:00,
2014-01-05 14:14:00,24.5,13.3,30.09,West,280,0.0,0.0,62,0.00,,,0.12,VWS V13.01,2014-01-05 20:14:00,
2014-01-05 14:19:00,25.2,14.0,30.09,West,280,0.0,0.0,62,0.00,,,0.12,VWS V13.01,2014-01-05 20:19:00,
2014-01-05 14:24:00,25.0,13.9,30.09,West,280,0.0,0.0,62,0.00,,,0.12,VWS V13.01,2014-01-05 20:24:00,
2014-01-05 14:29:00,24.8,13.3,30.11,West,280,0.0,0.0,61,0.00,,,0.12,VWS V13.01,2014-01-05 20:29:00,
2014-01-05 14:34:00,24.3,12.8,30.11,West,280,0.0,0.0,61,0.00,,,0.12,VWS V13.01,2014-01-05 20:34:00,
2014-01-05 14:39:00,24.8,13.3,30.11,West,280,0.0,0.0,61,0.00,,,0.12,VWS V13.01,2014-01-05 20:39:00,
2014-01-05 14:44:00,24.8,13.3,30.11,West,280,0.0,0.0,61,0.00,,,0.12,VWS V13.01,2014-01-05 20:44:00,
2014-01-05 14:49:00,24.8,13.3,30.11,West,280,0.0,0.0,61,0.00,,,0.12,VWS V13.01,2014-01-05 20:49:00,
2014-01-05 14:54:00,25.0,13.5,30.11,West,280,0.0,0.0,61,0.00,,,0.12,VWS V13.01,2014-01-05 20:54:00,
2014-01-05 14:59:00,25.0,13.9,30.14,West,280,0.0,0.0,62,0.00,,,0.12,VWS V13.01,2014-01-05 20:59:00,
2014-01-05 15:04:00,25.2,13.6,30.14,West,280,0.0,0.0,61,0.00,,,0.12,VWS V13.01,2014-01-05 21:04:00,
2014-01-05 15:09:00,25.7,14.2,30.14,West,280,0.0,0.0,61,0.00,,,0.12,VWS V13.01,2014-01-05 21:09:00,
2014-01-05 15:14:00,25.4,13.8,30.14,West,280,0.0,0.0,61,0.00,,,0.12,VWS V13.01,2014-01-05 21:14:00,
2014-01-05 15:19:00,24.7,13.1,30.14,West,280,0.0,0.0,61,0.00,,,0.12,VWS V13.01,2014-01-05 21:19:00,
2014-01-05 15:24:00,24.3,12.8,30.14,West,280,0.0,0.0,61,0.00,,,0.12,VWS V13.01,2014-01-05 21:24:00,
2014-01-05 15:29:00,24.8,13.3,30.14,West,280,0.0,0.0,61,0.00,,,0.12,VWS V13.01,2014-01-05 21:29:00,
2014-01-05 15:34:00,24.7,13.5,30.14,West,280,0.0,0.0,62,0.00,,,0.12,VWS V13.01,2014-01-05 21:34:00,
2014-01-05 15:39:00,24.3,12.8,30.14,West,280,0.0,0.0,61,0.00,,,0.12,VWS V13.01,2014-01-05 21:39:00,
2014-01-05 15:44:00,24.3,12.8,30.17,West,280,0.0,0.0,61,0.00,,,0.12,VWS V13.01,2014-01-05 21:44:00,
2014-01-05 15:49:00,24.3,12.8,30.17,West,280,0.0,0.0,61,0.00,,,0.12,VWS V13.01,2014-01-05 21:49:00,
2014-01-05 15:54:00,23.9,12.5,30.17,West,280,0.0,0.0,61,0.00,,,0.12,VWS V13.01,2014-01-05 21:54:00,
2014-01-05 15:59:00,23.9,12.5,30.20,West,280,0.0,0.0,61,0.00,,,0.12,VWS V13.01,2014-01-05 21:59:00,
2014-01-05 16:04:00,23.9,12.5,30.20,West,280,0.0,0.0,61,0.00,,,0.12,VWS V13.01,2014-01-05 22:04:00,
2014-01-05 16:09:00,23.9,12.5,30.20,West,280,0.0,0.0,61,0.00,,,0.12,VWS V13.01,2014-01-05 22:09:00,
2014-01-05 16:14:00,23.6,12.1,30.20,West,280,0.0,0.0,61,0.00,,,0.12,VWS V13.01,2014-01-05 22:14:00,
2014-01-05 16:19:00,23.6,12.5,30.20,West,280,0.0,0.0,62,0.00,,,0.12,VWS V13.01,2014-01-05 22:19:00,
2014-01-05 16:24:00,23.4,12.3,30.20,West,280,0.0,0.0,62,0.00,,,0.12,VWS V13.01,2014-01-05 22:24:00,
2014-01-05 16:29:00,23.4,12.3,30.23,West,280,0.0,0.0,62,0.00,,,0.12,VWS V13.01,2014-01-05 22:29:00,
2014-01-05 16:34:00,23.0,12.0,30.23,West,280,0.0,0.0,62,0.00,,,0.12,VWS V13.01,2014-01-05 22:34:00,
2014-01-05 16:39:00,22.9,11.8,30.23,West,280,0.0,0.0,62,0.00,,,0.12,VWS V13.01,2014-01-05 22:39:00,
2014-01-05 16:44:00,22.9,11.8,30.23,West,280,0.0,0.0,62,0.00,,,0.12,VWS V13.01,2014-01-05 22:44:00,
2014-01-05 16:48:00,22.9,11.8,30.23,West,280,0.0,0.0,62,0.00,,,0.12,VWS V13.01,2014-01-05 22:48:00,
2014-01-05 16:53:00,22.9,11.8,30.23,West,280,0.0,0.0,62,0.00,,,0.12,VWS V13.01,2014-01-05 22:53:00,
2014-01-05 16:58:00,22.9,11.8,30.26,West,280,0.0,0.0,62,0.00,,,0.12,VWS V13.01,2014-01-05 22:58:00,
2014-01-05 17:03:00,22.7,11.6,30.26,West,280,0.0,0.0,62,0.00,,,0.12,VWS V13.01,2014-01-05 23:03:00,
2014-01-05 17:08:00,22.5,11.8,30.26,West,280,0.0,0.0,63,0.00,,,0.12,VWS V13.01,2014-01-05 23:08:00,
2014-01-05 17:13:00,22.0,10.9,30.29,West,280,0.0,0.0,62,0.00,,,0.12,VWS V13.01,2014-01-05 23:13:00,
2014-01-05 17:18:00,21.8,11.1,30.29,West,280,0.0,0.0,63,0.00,,,0.12,VWS V13.01,2014-01-05 23:18:00,
2014-01-05 17:23:00,21.8,11.1,30.29,West,280,0.0,0.0,63,0.00,,,0.12,VWS V13.01,2014-01-05 23:23:00,
2014-01-05 17:28:00,21.6,11.0,30.29,West,280,0.0,0.0,63,0.00,,,0.12,VWS V13.01,2014-01-05 23:28:00,
2014-01-05 17:33:00,21.4,10.8,30.29,West,280,0.0,0.0,63,0.00,,,0.12,VWS V13.01,2014-01-05 23:33:00,
2014-01-05 17:38:00,21.4,11.1,30.29,West,280,0.0,0.0,64,0.00,,,0.12,VWS V13.01,2014-01-05 23:38:00,
2014-01-05 17:43:00,21.4,11.1,30.32,West,280,0.0,0.0,64,0.00,,,0.12,VWS V13.01,2014-01-05 23:43:00,
2014-01-05 17:48:00,21.4,10.8,30.32,West,280,0.0,0.0,63,0.00,,,0.12,VWS V13.01,2014-01-05 23:48:00,
2014-01-05 17:53:00,21.2,10.6,30.32,West,280,0.0,0.0,63,0.00,,,0.12,VWS V13.01,2014-01-05 23:53:00,
2014-01-05 17:58:00,21.1,10.4,30.32,West,280,0.0,0.0,63,0.00,,,0.12,VWS V13.01,2014-01-05 23:58:00,
2014-01-05 18:03:00,20.9,9.9,30.32,West,280,0.0,0.0,62,0.00,,,0.12,VWS V13.01,2014-01-06 00:03:00,
2014-01-05 18:08:00,20.7,10.1,30.32,West,280,0.0,0.0,63,0.00,,,0.12,VWS V13.01,2014-01-06 00:08:00,
2014-01-05 18:13:00,20.7,10.1,30.35,West,280,0.0,0.0,63,0.00,,,0.12,VWS V13.01,2014-01-06 00:13:00,
2014-01-05 18:18:00,20.7,10.1,30.35,West,280,0.0,0.0,63,0.00,,,0.12,VWS V13.01,2014-01-06 00:18:00,
2014-01-05 18:23:00,20.5,9.9,30.35,West,280,0.0,0.0,63,0.00,,,0.12,VWS V13.01,2014-01-06 00:23:00,
2014-01-05 18:28:00,20.3,9.8,30.35,West,280,0.0,0.0,63,0.00,,,0.12,VWS V13.01,2014-01-06 00:28:00,
2014-01-05 18:33:00,20.2,9.2,30.35,West,280,0.0,0.0,62,0.00,,,0.12,VWS V13.01,2014-01-06 00:33:00,
2014-01-05 18:38:00,20.2,9.2,30.35,West,280,0.0,0.0,62,0.00,,,0.12,VWS V13.01,2014-01-06 00:38:00,
2014-01-05 18:43:00,20.0,9.1,30.38,West,280,0.0,0.0,62,0.00,,,0.12,VWS V13.01,2014-01-06 00:43:00,
2014-01-05 18:48:00,20.0,9.1,30.38,West,280,0.0,0.0,62,0.00,,,0.12,VWS V13.01,2014-01-06 00:48:00,
2014-01-05 18:53:00,20.0,9.1,30.38,West,280,0.0,0.0,62,0.00,,,0.12,VWS V13.01,2014-01-06 00:53:00,
2014-01-05 18:58:00,20.0,9.4,30.38,West,280,0.0,0.0,63,0.00,,,0.12,VWS V13.01,2014-01-06 00:58:00,
2014-01-05 19:03:00,19.8,8.9,30.38,West,280,0.0,0.0,62,0.00,,,0.12,VWS V13.01,2014-01-06 01:03:00,
2014-01-05 19:08:00,19.8,8.9,30.38,West,280,0.0,0.0,62,0.00,,,0.12,VWS V13.01,2014-01-06 01:08:00,
2014-01-05 19:13:00,19.8,8.9,30.41,West,280,0.0,0.0,62,0.00,,,0.12,VWS V13.01,2014-01-06 01:13:00,
2014-01-05 19:18:00,19.6,8.7,30.41,West,280,0.0,0.0,62,0.00,,,0.12,VWS V13.01,2014-01-06 01:18:00,
2014-01-05 19:23:00,19.4,8.6,30.41,West,280,0.0,0.0,62,0.00,,,0.12,VWS V13.01,2014-01-06 01:23:00,
2014-01-05 19:28:00,19.4,8.6,30.41,West,280,0.0,0.0,62,0.00,,,0.12,VWS V13.01,2014-01-06 01:28:00,
2014-01-05 19:33:00,19.3,8.4,30.41,West,280,0.0,0.0,62,0.00,,,0.12,VWS V13.01,2014-01-06 01:33:00,
2014-01-05 19:38:00,19.1,8.2,30.41,West,280,0.0,0.0,62,0.00,,,0.12,VWS V13.01,2014-01-06 01:38:00,
2014-01-05 19:43:00,18.7,7.9,30.44,West,280,0.0,0.0,62,0.00,,,0.12,VWS V13.01,2014-01-06 01:43:00,
2014-01-05 19:48:00,18.2,7.4,30.44,West,280,0.0,0.0,62,0.00,,,0.12,VWS V13.01,2014-01-06 01:48:00,
2014-01-05 19:53:00,18.0,6.8,30.44,West,280,0.0,0.0,61,0.00,,,0.12,VWS V13.01,2014-01-06 01:53:00,
2014-01-05 19:58:00,17.8,6.7,30.47,West,280,0.0,0.0,61,0.00,,,0.12,VWS V13.01,2014-01-06 01:58:00,
2014-01-05 20:03:00,17.8,6.7,30.47,West,280,0.0,0.0,61,0.00,,,0.12,VWS V13.01,2014-01-06 02:03:00,
2014-01-05 20:08:00,17.6,6.5,30.47,West,280,0.0,0.0,61,0.00,,,0.12,VWS V13.01,2014-01-06 02:08:00,
2014-01-05 20:13:00,17.5,6.3,30.47,West,280,0.0,0.0,61,0.00,,,0.12,VWS V13.01,2014-01-06 02:13:00,
2014-01-05 20:18:00,17.3,6.2,30.47,West,280,0.0,0.0,61,0.00,,,0.12,VWS V13.01,2014-01-06 02:18:00,
2014-01-05 20:23:00,17.3,6.2,30.47,West,280,0.0,0.0,61,0.00,,,0.12,VWS V13.01,2014-01-06 02:23:00,
2014-01-05 20:28:00,17.1,6.3,30.47,West,280,0.0,0.0,62,0.00,,,0.12,VWS V13.01,2014-01-06 02:28:00,
2014-01-05 20:33:00,17.1,6.3,30.47,West,280,0.0,0.0,62,0.00,,,0.12,VWS V13.01,2014-01-06 02:33:00,
2014-01-05 20:38:00,16.9,5.8,30.47,West,280,0.0,0.0,61,0.00,,,0.12,VWS V13.01,2014-01-06 02:38:00,
2014-01-05 20:43:00,16.7,5.6,30.47,West,280,0.0,0.0,61,0.00,,,0.12,VWS V13.01,2014-01-06 02:43:00,
2014-01-05 20:48:00,16.6,5.5,30.47,West,280,0.0,0.0,61,0.00,,,0.12,VWS V13.01,2014-01-06 02:48:00,
2014-01-05 20:53:00,16.4,5.3,30.47,West,280,0.0,0.0,61,0.00,,,0.12,VWS V13.01,2014-01-06 02:53:00,
2014-01-05 20:58:00,16.2,4.4,30.47,West,280,0.0,0.0,59,0.00,,,0.12,VWS V13.01,2014-01-06 02:58:00,
2014-01-05 21:03:00,16.2,5.1,30.47,West,280,0.0,0.0,61,0.00,,,0.12,VWS V13.01,2014-01-06 03:03:00,
2014-01-05 21:08:00,16.2,4.4,30.47,West,280,0.0,0.0,59,0.00,,,0.12,VWS V13.01,2014-01-06 03:08:00,
2014-01-05 21:13:00,16.2,4.4,30.50,West,280,0.0,0.0,59,0.00,,,0.12,VWS V13.01,2014-01-06 03:13:00,
2014-01-05 21:18:00,16.2,4.4,30.50,West,280,0.0,0.0,59,0.00,,,0.12,VWS V13.01,2014-01-06 03:18:00,
2014-01-05 21:23:00,16.2,3.3,30.50,West,280,0.0,0.0,56,0.00,,,0.12,VWS V13.01,2014-01-06 03:23:00,
2014-01-05 21:28:00,16.2,3.3,30.50,West,280,0.0,0.0,56,0.00,,,0.12,VWS V13.01,2014-01-06 03:28:00,
2014-01-05 21:33:00,16.2,3.3,30.50,West,280,0.0,0.0,56,0.00,,,0.12,VWS V13.01,2014-01-06 03:33:00,
2014-01-05 21:38:00,16.2,3.3,30.50,West,280,0.0,0.0,56,0.00,,,0.12,VWS V13.01,2014-01-06 03:38:00,
2014-01-05 21:43:00,16.2,3.3,30.53,West,280,0.0,0.0,56,0.00,,,0.12,VWS V13.01,2014-01-06 03:43:00,
2014-01-05 21:48:00,16.0,3.1,30.53,West,280,0.0,0.0,56,0.00,,,0.12,VWS V13.01,2014-01-06 03:48:00,
2014-01-05 21:53:00,16.0,3.1,30.53,West,280,0.0,0.0,56,0.00,,,0.12,VWS V13.01,2014-01-06 03:53:00,
2014-01-05 21:58:00,15.8,2.9,30.53,West,280,0.0,0.0,56,0.00,,,0.12,VWS V13.01,2014-01-06 03:58:00,
2014-01-05 22:03:00,15.7,2.8,30.53,West,280,0.0,0.0,56,0.00,,,0.12,VWS V13.01,2014-01-06 04:03:00,
2014-01-05 22:08:00,15.5,1.8,30.53,West,280,0.0,0.0,54,0.00,,,0.12,VWS V13.01,2014-01-06 04:08:00,
2014-01-05 22:13:00,15.3,1.6,30.53,West,280,0.0,0.0,54,0.00,,,0.12,VWS V13.01,2014-01-06 04:13:00,
2014-01-05 22:18:00,15.3,1.6,30.53,West,280,0.0,0.0,54,0.00,,,0.12,VWS V13.01,2014-01-06 04:18:00,
2014-01-05 22:23:00,15.1,1.5,30.53,West,280,0.0,0.0,54,0.00,,,0.12,VWS V13.01,2014-01-06 04:23:00,
2014-01-05 22:27:00,15.1,1.5,30.56,West,280,0.0,0.0,54,0.00,,,0.12,VWS V13.01,2014-01-06 04:27:00,
2014-01-05 22:32:00,14.9,1.3,30.56,West,280,0.0,0.0,54,0.00,,,0.12,VWS V13.01,2014-01-06 04:32:00,
2014-01-05 22:37:00,14.8,1.1,30.56,West,280,0.0,0.0,54,0.00,,,0.12,VWS V13.01,2014-01-06 04:37:00,
2014-01-05 22:42:00,14.8,1.1,30.56,West,280,0.0,0.0,54,0.00,,,0.12,VWS V13.01,2014-01-06 04:42:00,
2014-01-05 22:47:00,14.6,1.0,30.56,West,280,0.0,0.0,54,0.00,,,0.12,VWS V13.01,2014-01-06 04:47:00,
2014-01-05 22:52:00,14.6,1.0,30.56,West,280,0.0,0.0,54,0.00,,,0.12,VWS V13.01,2014-01-06 04:52:00,
2014-01-05 22:57:00,14.4,0.8,30.56,West,280,0.0,0.0,54,0.00,,,0.12,VWS V13.01,2014-01-06 04:57:00,
2014-01-05 23:01:00,14.6,1.0,30.56,West,280,0.0,0.0,54,0.00,,,0.12,VWS V13.01,2014-01-06 05:01:00,
2014-01-05 23:06:00,14.4,0.8,30.56,West,280,0.0,0.0,54,0.00,,,0.12,VWS V13.01,2014-01-06 05:06:00,
2014-01-05 23:11:00,14.0,0.5,30.59,West,280,0.0,0.0,54,0.00,,,0.12,VWS V13.01,2014-01-06 05:11:00,
2014-01-05 23:16:00,14.0,0.5,30.59,West,280,0.0,0.0,54,0.00,,,0.12,VWS V13.01,2014-01-06 05:16:00,
2014-01-05 23:21:00,14.0,0.5,30.59,West,280,0.0,0.0,54,0.00,,,0.12,VWS V13.01,2014-01-06 05:21:00,
2014-01-05 23:26:00,13.9,0.3,30.59,West,280,0.0,0.0,54,0.00,,,0.12,VWS V13.01,2014-01-06 05:26:00,
2014-01-05 23:31:00,13.7,0.1,30.59,West,280,0.0,0.0,54,0.00,,,0.12,VWS V13.01,2014-01-06 05:31:00,
2014-01-05 23:36:00,13.3,0.2,30.59,West,280,0.0,0.0,55,0.00,,,0.12,VWS V13.01,2014-01-06 05:36:00,
2014-01-05 23:41:00,13.3,0.2,30.59,West,280,0.0,0.0,55,0.00,,,0.12,VWS V13.01,2014-01-06 05:41:00,
2014-01-05 23:46:00,13.3,0.2,30.59,West,280,0.0,0.0,55,0.00,,,0.12,VWS V13.01,2014-01-06 05:46:00,
2014-01-05 23:51:00,13.1,0.0,30.59,West,280,0.0,0.0,55,0.00,,,0.12,VWS V13.01,2014-01-06 05:51:00,
2014-01-05 23:56:00,13.0,-0.2,30.59,West,280,0.0,0.0,55,0.00,,,0.12,VWS V13.01,2014-01-06 05:56:00,